Regional Weather Roundup
Issued by NWS

Home | Current Version | Previous Version | Text Only | Print | Product List | Glossary On
Versions: 1 2 3 4 5 6 7 8 9 10 11 12 13 14 15 16 17 18 19 20 21 22 23 24 25 26 27 28 29 30 31 32 33 34 35 36 37 38 39 40 41 42 43 44 45 46 47 48 49 50
000
ASUS43 KLMK 160610
RWRKY
KENTUCKY REGIONAL WEATHER ROUNDUP
NATIONAL WEATHER SERVICE LOUISVILLE KY
100 AM EST SAT DEC 16 2017

NOTE "FAIR" INDICATES FEW OR NO CLOUDS BELOW 12,000 FEET
WITH NO SIGNIFICANT WEATHER AND/OR OBSTRUCTIONS TO VISIBILITY.

KYZ001>023-026-027-061>063-070>075-160700-
WESTERN AND SOUTH CENTRAL KENTUCKY

CITY           SKY/WX    TMP DP  RH WIND       PRES   REMARKS
PADUCAH        PTCLDY    37  25  61 SW8       30.13F WCI  31
HENDERSON      CLEAR     32  26  78 S8        30.13S WCI  25
OWENSBORO      CLEAR     32  25  75 S7        30.14S WCI  26
HOPKINSVILLE   PTCLDY    35  24  64 S8        30.16S WCI  28
BOWLING GREEN  CLOUDY    32  24  72 S8        30.19S WCI  25
GLASGOW        CLEAR     32  23  70 S3        30.18S
$$

KYZ024-025-028>034-038-045-046-053-160700-
NORTH CENTRAL KENTUCKY

CITY           SKY/WX    TMP DP  RH WIND       PRES   REMARKS
LOUISVILLE/SDF CLOUDY    39  24  55 SW7       30.13F WCI  34
LOUISVILLE/LOU CLOUDY    36  26  67 S6        30.14F WCI  31
FORT KNOX      CLOUDY    36  24  62 S8        30.12S WCI  29
$$

KYZ035>037-039>044-047>052-055>060-089>105-160700-
NORTHEAST KENTUCKY

CITY           SKY/WX    TMP DP  RH WIND       PRES   REMARKS
LEXINGTON      CLOUDY    32  23  69 S10       30.14F WCI  24
COVINGTON      CLOUDY    32  24  72 S9        30.08F WCI  24
FRANKFORT      CLOUDY    34  22  61 SW6       30.13S WCI  29
$$

KYZ054-064>069-076>088-106>120-160700-
SOUTHEAST KENTUCKY

CITY           SKY/WX    TMP DP  RH WIND       PRES   REMARKS
JACKSON        CLOUDY    31  21  66 SW3       30.15S
LONDON         PTCLDY    28  20  71 CALM      30.17S
SOMERSET       CLOUDY    32  21  64 S6        30.20S WCI  26
MIDDLESBORO    CLOUDY    30  24  79 CALM      30.21S
MONTICELLO     CLOUDY    31  23  72 NE6       30.21S WCI  25
$$





USA.gov is the U.S. government's official web portal to all federal, state and local government web resources and services.